Weather in Le Gosier

Guadeloupe     16°12′22″N   61°29′41″W
temp.,
°C
wind,
m/s
gust,
m/s
humid.,
%
clouds,
%
prec.,
mm/h
press.,
hPa
HPBL,
m
18 january, tue
tue1823:00+24ese58759 0.3 1016444
02:00+24ese587296 0.4 1015526
05:00+24ese466636 0.1 1015554
08:00+25ese35750 0.3 1018482
11:00+27ese56605 0.0 10181357
14:00+28ese55617 0.2 10151247
17:00+26e56691 0.1 10151104
20:00+23e37839 0.6 1017326
19 january, wed
wed1923:00+23e478411 0.5 1018331
02:00+23e36816 0.6 1017285
05:00+23e37835 0.3 1017282
08:00+24e46793 0.9 1019685
11:00+27e676834 1.1 10191216
14:00+27e66647 1.6 10171295
17:00+26e67746 0.6 1016949
20:00+23e488327 1.4 1018392
20 january, thu
thu2023:00+23ene588312 1.7 1018429
02:00+23e59769 2.1 1017483
05:00+23e58767 0.0 1017466
08:00+24e48779 0.1 1018718
11:00+27e786836 0.7 10181223
14:00+26ese676832 2.1 10161158
17:00+25e68766 1.1 1016863
20:00+24e597816 1.6 1017506
21 january, fri
fri2123:00+24e587595 0.2 1018543
02:00+23e59750 0.3 1016494
05:00+22e48832 0.3 1015386
08:00+24e697810 0.9 1017893
11:00+26e796913 1.1 10171201
14:00+26e786927 3.1 10151163
17:00+25ene687246 1.3 1015842
20:00+23ene49730 1.4 1017463
22 january, sat
sat2223:00+23e610710 0.0 1016570
02:00+23ene597915 0.1 1015518
05:00+23e510730 0.1 1014485
08:00+24e47758 0.1 1016829
11:00+27e78601 0.3 10171291
14:00+27ese676431 0.3 10141336
17:00+26e56694 0.2 10141102
20:00+23e487690 0.3 1015443